KD5NDU-1 Weather Reports


Display with metric or nautical units.
time (UTC)temp
F
wind
direction
speed
MPH
gust
MPH
rain 1hr
in
rain 24hr
in
rain mn
in
humidity
%
barometer
mb
20260504204504 78 268 8.0 12.0 0.00 0.00 0.00 47 1013.2
20260504204008 78 268 8.0 12.0 0.00 0.00 0.00 45 1013.3
20260504203503 78 268 8.0 12.0 0.00 0.00 0.00 45 1013.3
20260504203020 79 268 8.0 12.0 0.00 0.00 0.00 46 1013.4
20260504202508 79 268 8.0 12.0 0.00 0.00 0.00 52 1013.4
20260504202004 78 268 8.0 12.0 0.00 0.00 0.00 44 1013.5
20260504201520 78 268 8.0 12.0 0.00 0.00 0.00 44 1013.7
20260504201005 79 268 8.0 12.0 0.00 0.00 0.00 44 1013.7
20260504200511 79 268 8.0 12.0 0.00 0.00 0.00 43 1013.7
20260504200014 80 268 8.0 12.0 0.00 0.00 0.00 47 1013.8
20260504195504 79 268 8.0 12.0 0.00 0.00 0.00 47 1013.8
20260504195007 79 268 8.0 12.0 0.00 0.00 0.00 44 1013.8
20260504194510 79 268 8.0 12.0 0.00 0.00 0.00 47 1013.9
20260504194003 79 268 8.0 12.0 0.00 0.00 0.00 41 1013.9
20260504193507 78 268 8.0 12.0 0.00 0.00 0.00 45 1013.9
20260504193008 78 268 8.0 12.0 0.00 0.00 0.00 46 1014.0
20260504192508 78 268 8.0 12.0 0.00 0.00 0.00 43 1014.1
20260504192007 79 268 8.0 12.0 0.00 0.00 0.00 47 1014.1
20260504191511 79 268 8.0 12.0 0.00 0.00 0.00 48 1014.2
20260504191008 78 268 8.0 12.0 0.00 0.00 0.00 44 1014.1
20260504190506 78 268 8.0 12.0 0.00 0.00 0.00 44 1014.2
20260504190005 78 268 8.0 12.0 0.00 0.00 0.00 46 1014.3
20260504185507 78 268 8.0 12.0 0.00 0.00 0.00 47 1014.4
20260504185005 78 268 8.0 12.0 0.00 0.00 0.00 44 1014.4
20260504184522 78 268 8.0 12.0 0.00 0.00 0.00 44 1014.5
20260504184006 78 268 8.0 12.0 0.00 0.00 0.00 41 1014.5
20260504183504 78 268 8.0 12.0 0.00 0.00 0.00 43 1014.7
20260504183022 78 268 8.0 12.0 0.00 0.00 0.00 43 1014.7
20260504182508 78 268 8.0 12.0 0.00 0.00 0.00 44 1014.7
20260504182015 78 220 6.0 14.0 0.00 0.00 0.00 49 1014.7
20260504181518 78 167 5.0 14.0 0.00 0.00 0.00 43 1014.8
20260504181007 78 208 8.0 14.0 0.00 0.00 0.00 43 1014.9
20260504180510 78 239 7.0 11.0 0.00 0.00 0.00 43 1014.9
20260504180019 77 63 0.0 0.0 0.00 0.00 0.00 45 1015.0
20260504175504 77 63 0.0 0.0 0.00 0.00 0.00 48 1015.0
20260504175008 77 63 0.0 0.0 0.00 0.00 0.00 50 1015.0
20260504174512 77 63 0.0 0.0 0.00 0.00 0.00 51 1015.1
20260504174008 77 63 0.0 0.0 0.00 0.00 0.00 50 1015.1
20260504173509 77 63 0.0 0.0 0.00 0.00 0.00 50 1015.1
20260504173010 77 63 0.0 0.0 0.00 0.00 0.00 49 1015.3
20260504172510 76 63 0.0 0.0 0.00 0.00 0.00 53 1015.3
20260504172006 77 63 0.0 0.0 0.00 0.00 0.00 54 1015.3
20260504171532 77 63 0.0 0.0 0.00 0.00 0.00 49 1015.3
20260504171010 77 63 0.0 0.0 0.00 0.00 0.00 51 1015.3
20260504170504 77 63 0.0 0.0 0.00 0.00 0.00 53 1015.4
20260504151007 71 63 0.0 0.0 0.00 0.00 0.00 65 1016.4
20260504150507 71 63 0.0 0.0 0.00 0.00 0.00 64 1016.5
20260504141017 67 63 0.0 0.0 0.00 0.00 0.00 71 1016.6
20260504140506 66 63 0.0 0.0 0.00 0.00 0.00 70 1016.6
20260504130511 59 63 0.0 0.0 0.00 0.00 0.00 83 1016.5
20260504110506 47 63 0.0 0.0 0.00 0.00 0.00 89 1015.8
20260504100505 47 63 0.0 0.0 0.00 0.00 0.00 89 1016.0
20260504082007 49 63 0.0 0.0 0.00 0.00 0.00 88 1016.2
20260504081511 49 63 0.0 0.0 0.00 0.00 0.00 88 1016.2
20260504081018 49 63 0.0 0.0 0.00 0.00 0.00 88 1016.3
20260504080508 49 63 0.0 0.0 0.00 0.00 0.00 88 1016.3
20260504050503 51 63 0.0 0.0 0.00 0.00 0.00 87 1017.8
20260504050004 51 63 0.0 0.0 0.00 0.00 0.00 87 1017.7
20260504045507 51 63 0.0 0.0 0.00 0.00 0.00 87 1017.6
20260504045006 51 63 0.0 0.0 0.00 0.00 0.00 86 1017.6
20260504044504 51 63 0.0 0.0 0.00 0.00 0.00 86 1017.6
20260504044007 51 63 0.0 0.0 0.00 0.00 0.00 86 1017.6
20260504043504 51 63 0.0 0.0 0.00 0.00 0.00 86 1017.6
20260504043017 51 63 0.0 0.0 0.00 0.00 0.00 86 1017.6
20260504042504 51 63 0.0 0.0 0.00 0.00 0.00 86 1017.5
20260504042004 51 63 0.0 0.0 0.00 0.00 0.00 86 1017.6
20260504041514 52 63 0.0 0.0 0.00 0.00 0.00 86 1017.7
20260504041004 52 63 0.0 0.0 0.00 0.00 0.00 86 1017.7
20260504040506 52 63 0.0 0.0 0.00 0.00 0.00 86 1017.7
20260504040031 52 63 0.0 0.0 0.00 0.00 0.00 85 1017.7
20260504035506 52 63 0.0 0.0 0.00 0.00 0.00 85 1017.8
20260504035008 52 63 0.0 0.0 0.00 0.00 0.00 85 1017.8
20260504034508 52 63 0.0 0.0 0.00 0.00 0.00 85 1017.9
20260504034004 53 63 0.0 0.0 0.00 0.00 0.00 85 1017.9
20260504033506 53 63 0.0 0.0 0.00 0.00 0.00 84 1017.9
20260504033007 53 63 0.0 0.0 0.00 0.00 0.00 84 1017.9
20260504032508 53 63 0.0 0.0 0.00 0.00 0.00 84 1017.9
20260504032010 53 63 0.0 0.0 0.00 0.00 0.00 84 1017.9
20260504031504 53 63 0.0 0.0 0.00 0.00 0.00 84 1017.9
20260504031007 54 63 0.0 0.0 0.00 0.00 0.00 84 1018.0
20260504030506 54 63 0.0 0.0 0.00 0.00 0.00 83 1018.1
20260504030020 54 63 0.0 0.0 0.00 0.00 0.00 83 1018.1
20260504025508 54 63 0.0 0.0 0.00 0.00 0.00 82 1018.0
20260504025006 55 63 0.0 0.0 0.00 0.00 0.00 82 1018.0
20260504024517 55 63 0.0 0.0 0.00 0.00 0.00 82 1017.9
20260504024008 55 63 0.0 0.0 0.00 0.00 0.00 81 1017.9
20260504023502 55 63 0.0 0.0 0.00 0.00 0.00 81 1017.9
20260504023014 55 63 0.0 0.0 0.00 0.00 0.00 81 1018.0
20260504022504 56 63 0.0 0.0 0.00 0.00 0.00 81 1017.9
20260504022008 56 63 0.0 0.0 0.00 0.00 0.00 80 1017.9
20260504021511 56 63 0.0 0.0 0.00 0.00 0.00 80 1017.8
20260504021003 57 63 0.0 0.0 0.00 0.00 0.00 79 1017.8
20260504020506 57 63 0.0 0.0 0.00 0.00 0.00 79 1017.7
20260504020024 57 63 0.0 0.0 0.00 0.00 0.00 77 1017.7
20260504015503 58 63 0.0 0.0 0.00 0.00 0.00 77 1017.7
20260504015009 58 63 0.0 0.0 0.00 0.00 0.00 77 1017.5
20260504014518 58 63 0.0 0.0 0.00 0.00 0.00 76 1017.6
20260504014005 59 63 0.0 0.0 0.00 0.00 0.00 76 1017.5
20260504013505 59 63 0.0 0.0 0.00 0.00 0.00 75 1017.4
20260504013006 60 63 0.0 0.0 0.00 0.00 0.00 75 1017.3
20260504012509 60 63 0.0 0.0 0.00 0.00 0.00 73 1017.3
20260504012008 61 63 0.0 0.0 0.00 0.00 0.00 73 1017.3
20260504011522 61 63 0.0 0.0 0.00 0.00 0.00 73 1017.3
20260504011010 62 63 0.0 0.0 0.00 0.00 0.00 71 1017.3
20260504010504 63 63 0.0 0.0 0.00 0.00 0.00 71 1017.2
20260504010025 63 63 0.0 0.0 0.00 0.00 0.00 69 1017.2
20260504005505 64 63 0.0 0.0 0.00 0.00 0.00 69 1017.3
20260504005002 65 63 0.0 0.0 0.00 0.00 0.00 69 1017.2
20260504004515 65 63 0.0 0.0 0.00 0.00 0.00 68 1017.3
20260504004006 66 63 0.0 0.0 0.00 0.00 0.00 67 1017.2
20260504003508 66 63 0.0 0.0 0.00 0.00 0.00 64 1017.2
20260504003014 67 63 0.0 0.0 0.00 0.00 0.00 66 1017.2
20260504002503 67 63 0.0 0.0 0.00 0.00 0.00 60 1017.2
20260504002010 68 63 0.0 0.0 0.00 0.00 0.00 57 1017.1
20260504001513 68 63 0.0 0.0 0.00 0.00 0.00 60 1017.0
20260504001011 69 63 0.0 0.0 0.00 0.00 0.00 55 1017.0
20260504000507 69 63 0.0 0.0 0.00 0.00 0.00 57 1017.0
20260504000008 70 63 0.0 0.0 0.00 0.00 0.00 53 1017.0
20260503235508 70 63 0.0 0.0 0.00 0.00 0.00 52 1017.0
20260503235006 71 63 0.0 0.0 0.00 0.00 0.00 49 1017.2
20260503234508 71 63 0.0 0.0 0.00 0.00 0.00 49 1017.2
20260503234006 72 63 0.0 0.0 0.00 0.00 0.00 46 1017.2
20260503233508 73 63 0.0 0.0 0.00 0.00 0.00 45 1017.2
20260503233026 74 63 0.0 0.0 0.00 0.00 0.00 42 1017.3
20260503232507 74 63 0.0 0.0 0.00 0.00 0.00 39 1017.4
20260503232005 74 63 0.0 0.0 0.00 0.00 0.00 40 1017.5
20260503231521 74 63 0.0 0.0 0.00 0.00 0.00 42 1017.5
20260503231007 74 63 0.0 0.0 0.00 0.00 0.00 40 1017.6
20260503230502 74 63 0.0 0.0 0.00 0.00 0.00 39 1017.5
20260503230018 74 63 0.0 0.0 0.00 0.00 0.00 39 1017.6
20260503225506 74 63 0.0 0.0 0.00 0.00 0.00 40 1017.6
20260503225012 75 63 0.0 0.0 0.00 0.00 0.00 36 1017.6
20260503224518 75 63 0.0 0.0 0.00 0.00 0.00 37 1017.6
20260503224004 75 63 0.0 0.0 0.00 0.00 0.00 36 1017.6
20260503223509 75 63 0.0 0.0 0.00 0.00 0.00 36 1017.7
20260503223016 75 63 0.0 0.0 0.00 0.00 0.00 34 1017.7
20260503222508 75 63 0.0 0.0 0.00 0.00 0.00 35 1017.8
20260503222012 75 63 0.0 0.0 0.00 0.00 0.00 34 1017.8
20260503221510 76 63 0.0 0.0 0.00 0.00 0.00 33 1017.7
20260503221012 76 63 0.0 0.0 0.00 0.00 0.00 32 1017.8
20260503220507 76 63 0.0 0.0 0.00 0.00 0.00 35 1017.8
20260503220010 75 63 0.0 0.0 0.00 0.00 0.00 37 1017.8
20260503215508 75 63 0.0 0.0 0.00 0.00 0.00 33 1017.8
20260503215006 76 63 0.0 0.0 0.00 0.00 0.00 32 1017.9
20260503214524 75 63 0.0 0.0 0.00 0.00 0.00 31 1017.9
20260503214008 76 63 0.0 0.0 0.00 0.00 0.00 33 1018.0
20260503213511 76 63 0.0 0.0 0.00 0.00 0.00 38 1018.1
20260503213024 75 63 0.0 0.0 0.00 0.00 0.00 34 1018.1
20260503212508 75 63 0.0 0.0 0.00 0.00 0.00 32 1018.3
20260503212011 76 63 0.0 0.0 0.00 0.00 0.00 35 1018.4
20260503211524 75 63 0.0 0.0 0.00 0.00 0.00 33 1018.5
20260503211011 75 63 0.0 0.0 0.00 0.00 0.00 31 1018.5
20260503210510 75 63 0.0 0.0 0.00 0.00 0.00 37 1018.6
20260503210018 75 63 0.0 0.0 0.00 0.00 0.00 31 1018.7
20260503205507 75 63 0.0 0.0 0.00 0.00 0.00 36 1018.8
20260503205007 75 63 0.0 0.0 0.00 0.00 0.00 37 1018.8